Overview Statistics Trail Chart Weather Telemetry Raw packets
 

This is the latest recevied weather packets stored in our database for station/object N0QWM. If no packets are shown the sender has not sent any weather packets the latest 10 day(s).

<< 106 107 108 109 110 111 112 >>
Time Temp. Humidity Pressure Rain* Wind** Luminosity Snow
1787849983 26.67° C 84% 1020.8 hPa 0 mm - 402 W/m² -
1787849679 26.67° C 86% 1020.9 hPa 0 mm - 270 W/m² -
1787849379 26.67° C 86% 1021.2 hPa 0 mm - 223 W/m² -
1787849072 26.11° C 86% 1021.4 hPa 0 mm - 233 W/m² -
1787848767 26.67° C 86% 1021.6 hPa 0 mm - 298 W/m² -
1787848467 26.11° C 87% 1021.4 hPa 0 mm - 286 W/m² -
1787848162 26.11° C 87% 1021.5 hPa 0 mm - 273 W/m² -
1787847856 26.11° C 89% 1021.5 hPa 0 mm - 246 W/m² -
1787847551 25.56° C 89% 1021.5 hPa 0 mm - 245 W/m² -
1787847247 25.56° C 89% 1021.5 hPa 0 mm - 234 W/m² -
1787846944 25.56° C 90% 1021.7 hPa 0 mm - 214 W/m² -
1787846643 25.56° C 91% 1021.7 hPa 0 mm - 213 W/m² -
1787846337 25.56° C 90% 1021.9 hPa 0 mm - 196 W/m² -
1787846033 25.56° C 91% 1022.1 hPa 0 mm - 188 W/m² -
1787845729 25° C 91% 1021.9 hPa 0 mm - 176 W/m² -
1787845429 25° C 91% 1022 hPa 0 mm - 159 W/m² -
1787845125 24.44° C 91% 1022.1 hPa 0 mm - 139 W/m² -
1787844821 24.44° C 92% 1021.9 hPa 0 mm - 125 W/m² -
1787844519 24.44° C 92% 1021.7 hPa 0 mm - 123 W/m² -
1787844214 24.44° C 94% 1022 hPa 0 mm - 118 W/m² -
1787843913 24.44° C 93% 1021.7 hPa 0 mm - 111 W/m² -
1787843609 24.44° C 93% 1021.6 hPa 0 mm - 106 W/m² -
1787843305 24.44° C 94% 1021.6 hPa 0 mm - 108 W/m² -
1787843000 24.44° C 93% 1021.9 hPa 0 mm - 108 W/m² -
1787842700 24.44° C 94% 1021.7 hPa 0 mm - 110 W/m² -

* Rain latest hour (hover to see other rain measurements)
** Current wind speed in m/s (hover to see current wind gust speed)